Home > Weather > Newtown > Past weeks

Flag for United Kingdom Weather for the Past 2 Weeks in Newtown, Wales, United Kingdom

Now
35 °F

Chilly.


Feels Like: 30 °F
Forecast: 25 / 39 °F
Wind: 6 mph from North

Location: Trawscoed

Current Time: Feb 15, 2016 at 12:18:14 AM

Latest Report: Feb 14, 2016 at 10:00 PM


Visibility: 31 mi

Pressure: 29.96 "Hg

Humidity: 79%

Dew point: 29 °F

Location of NewtownLocation

Historic Weather in Newtown — Graph

°F

Newtown Temperature Yesterday

Maximum temperature yesterday: 44 °F (at 3:00 PM)
Minimum temperature yesterday: 35 °F (at 9:00 PM)
Average temperature yesterday: 39 °F

High & Low Weather Summary for the Past Weeks

 TemperatureHumidityPressure
High55 °F (Jan 31, 4:00 PM)97% (Feb 6, 1:00 AM)30.32 "Hg (Feb 6, 1:00 AM)
Low28 °F (Feb 11, 7:00 AM)53% (Feb 14, 3:00 PM)28.82 "Hg (Feb 8, 7:00 AM)
Average44 °F82%29.54 "Hg
* Reported Jan 31 5:00 AM — Feb 14 10:00 PM, Newtown, Weather by CustomWeather, © 2016

Note: Actual official high and low records may vary slightly from our data, if they occured in-between our weather recording intervals... More about our weather records

Advertising

Newtown Weather History for the Previous 24 Hours

 ConditionsComfort  
Time TempWeatherWind HumidityBarometerVisibility
10:00 PM
Sun, Feb 14
35 °FChilly.6 mph79%29.96 "Hg31 mi
9:00 PM35 °FChilly.3 mph78%29.91 "Hg31 mi
8:00 PM36 °FChilly.6 mph75%29.88 "Hg31 mi
7:00 PM36 °FChilly.6 mph72%29.83 "Hg31 mi
6:00 PM37 °FChilly.8 mph67%29.78 "Hg31 mi
5:00 PM41 °FQuite cool.12 mph53%29.72 "Hg28 mi
4:00 PM43 °FQuite cool.8 mph56%29.68 "Hg28 mi
3:00 PM44 °FQuite cool.10 mph53%29.63 "Hg22 mi
2:00 PM41 °FQuite cool.9 mph60%29.60 "Hg31 mi
1:00 PM42 °FQuite cool.9 mph63%29.56 "Hg16 mi
12:00 PM40 °FChilly.5 mph70%29.53 "Hg19 mi
11:00 AM39 °FChilly.9 mph73%29.50 "Hg16 mi
10:00 AM39 °FChilly.6 mph74%29.44 "Hg14 mi
9:00 AM38 °FChilly.9 mph75%29.38 "Hg9 mi
8:00 AM38 °FChilly.6 mph77%29.35 "Hg11 mi
7:00 AM37 °FChilly.6 mph79%29.32 "Hg10 mi
6:00 AM38 °FChilly.9 mph78%29.29 "Hg12 mi
5:00 AM39 °FChilly.8 mph78%29.26 "Hg10 mi
Weather by CustomWeather, © 2016

See weather overviewHow to use our weather pages